NORTHEAST SUFFOLK  -  Special Weather Statement Special Weather Statement        NORTHERN NASSAU  -  Special Weather Statement Special Weather Statement        NORTHWEST SUFFOLK  -  Special Weather Statement Special Weather Statement        SOUTHEAST SUFFOLK  -  Special Weather Statement Special Weather Statement        SOUTHERN NASSAU  -  Special Weather Statement Special Weather Statement        SOUTHWEST SUFFOLK  -  Special Weather Statement Special Weather Statement      

Active alerts

Northern Nassau
  Details for Northern Nassau Special Weather Statement
Southern Nassau
  Details for Southern Nassau Special Weather Statement
Northwest Suffolk
  Details for Northwest Suffolk Special Weather Statement
Southwest Suffolk
  Details for Southwest Suffolk Special Weather Statement
Northeast Suffolk
  Details for Northeast Suffolk Special Weather Statement
Southeast Suffolk
  Details for Southeast Suffolk Special Weather Statement


WXM80 ListenWXM80 Stop

You find our weather info also at:

UK Metoffice

WeatherCloud

Weather Underground

Northeastern Weather Network

AWEKAS

Citizen Weather Observer Program (CWOP)

HAMweather, WeatherForYou, PWS Weather


Weather Underground History page Text

Daily Summary for June 22, 2017 Units:  English    Metric   Both
« Previous Day
Next Day »
Daily Weekly Monthly Yearly Custom
  High: Low: Average:
Temperature: 86.0 °F 61.1 °F 74.2 °F
Dew Point: 70.0 °F 59.0 °F 63.3 °F
Humidity: 96 % 45 % 71 %
Wind Speed: 7.0 mph 0.0 mph 0.9 mph
Wind Gust: 12.0 mph - -
Wind:- - SSE
Pressure: 30.00 in 29.85 in -
Precipitation: 0.00 in    
Historical Graphs
 
 
Tabular Data for June 22, 2017
Time Temperature Dew Point Pressure Wind Wind Speed Wind Gust Humidity Rainfall Rate (Hourly)
00:04 70.4 °F 62.8 °F 29.90 in Calm   1.2 mph 77 % 0.00 in
00:09 70.3 °F 63.1 °F 29.90 in Calm   1.2 mph 78 % 0.00 in
00:14 70.1 °F 62.9 °F 29.90 in Calm     78 % 0.00 in
00:19 70.0 °F 62.8 °F 29.91 in Calm     78 % 0.00 in
00:24 69.9 °F 62.7 °F 29.90 in Calm     78 % 0.00 in
00:29 69.7 °F 63.3 °F 29.90 in Calm     80 % 0.00 in
00:34 69.5 °F 63.1 °F 29.90 in Calm     80 % 0.00 in
00:39 69.3 °F 63.2 °F 29.91 in Calm     81 % 0.00 in
00:44 69.0 °F 62.9 °F 29.91 in Calm     81 % 0.00 in
00:45 69.0 °F 62.9 °F 29.91 in Calm     81 % 0.00 in
00:50 68.8 °F 63.1 °F 29.91 in Calm     82 % 0.00 in
00:55 68.6 °F 62.9 °F 29.91 in Calm   1.2 mph 82 % 0.00 in
01:00 68.3 °F 62.9 °F 29.91 in Calm     83 % 0.00 in
01:05 68.0 °F 62.6 °F 29.91 in Calm     83 % 0.00 in
01:10 67.8 °F 62.4 °F 29.91 in Calm     83 % 0.00 in
01:15 67.5 °F 62.2 °F 29.91 in Calm     83 % 0.00 in
01:20 67.2 °F 62.2 °F 29.91 in Calm     84 % 0.00 in
01:25 67.0 °F 62.0 °F 29.92 in Calm     84 % 0.00 in
01:30 66.8 °F 62.1 °F 29.92 in Calm     85 % 0.00 in
01:35 66.6 °F 61.9 °F 29.92 in Calm     85 % 0.00 in
01:40 66.4 °F 62.1 °F 29.92 in Calm     86 % 0.00 in
01:46 66.2 °F 61.9 °F 29.92 in Calm     86 % 0.00 in
01:51 66.0 °F 61.7 °F 29.92 in Calm     86 % 0.00 in
01:56 65.8 °F 61.5 °F 29.92 in WSW 1.0 mph 2.0 mph 86 % 0.00 in
02:01 65.7 °F 61.7 °F 29.92 in Calm     87 % 0.00 in
02:06 65.4 °F 61.4 °F 29.92 in WSW 0.8 mph 2.3 mph 87 % 0.00 in
02:11 65.3 °F 61.7 °F 29.92 in Calm     88 % 0.00 in
02:16 65.1 °F 61.5 °F 29.92 in WSW 0.1 mph 2.3 mph 88 % 0.00 in
02:21 64.9 °F 61.3 °F 29.92 in Calm     88 % 0.00 in
02:26 64.8 °F 61.2 °F 29.92 in Calm     88 % 0.00 in
02:31 64.7 °F 61.1 °F 29.92 in Calm     88 % 0.00 in
02:36 64.5 °F 61.2 °F 29.92 in Calm     89 % 0.00 in
02:41 64.5 °F 61.2 °F 29.92 in Calm     89 % 0.00 in
02:46 64.3 °F 61.0 °F 29.92 in Calm     89 % 0.00 in
02:51 64.2 °F 60.9 °F 29.92 in Calm     89 % 0.00 in
02:56 64.1 °F 60.8 °F 29.92 in Calm     89 % 0.00 in
03:01 64.0 °F 61.0 °F 29.92 in Calm     90 % 0.00 in
03:06 63.9 °F 60.9 °F 29.92 in Calm     90 % 0.00 in
03:11 63.8 °F 60.8 °F 29.92 in Calm     90 % 0.00 in
03:17 63.7 °F 60.4 °F 29.92 in Calm     89 % 0.00 in
03:22 63.6 °F 60.6 °F 29.93 in Calm     90 % 0.00 in
03:27 63.5 °F 60.5 °F 29.93 in Calm     90 % 0.00 in
03:32 63.4 °F 60.4 °F 29.93 in Calm     90 % 0.00 in
03:37 63.4 °F 60.4 °F 29.93 in Calm     90 % 0.00 in
03:42 63.3 °F 60.3 °F 29.93 in Calm     90 % 0.00 in
03:45 63.2 °F 60.2 °F 29.93 in Calm     90 % 0.00 in
03:50 63.1 °F 60.4 °F 29.93 in Calm     91 % 0.00 in
03:55 63.0 °F 60.3 °F 29.93 in Calm     91 % 0.00 in
04:00 62.9 °F 60.2 °F 29.93 in Calm   1.2 mph 91 % 0.00 in
04:05 62.8 °F 60.4 °F 29.93 in Calm     92 % 0.00 in
04:11 62.7 °F 60.0 °F 29.93 in Calm     91 % 0.00 in
04:16 62.7 °F 60.0 °F 29.93 in Calm     91 % 0.00 in
04:21 62.6 °F 59.9 °F 29.94 in Calm     91 % 0.00 in
04:26 62.5 °F 60.1 °F 29.94 in Calm     92 % 0.00 in
04:31 62.4 °F 60.0 °F 29.93 in Calm     92 % 0.00 in
04:36 62.3 °F 59.9 °F 29.94 in Calm     92 % 0.00 in
04:41 62.3 °F 59.9 °F 29.94 in Calm     92 % 0.00 in
04:46 62.2 °F 59.5 °F 29.94 in Calm     91 % 0.00 in
04:51 62.0 °F 59.6 °F 29.94 in Calm     92 % 0.00 in
04:54 62.0 °F 59.6 °F 29.94 in Calm     92 % 0.00 in
04:59 61.9 °F 59.5 °F 29.94 in Calm     92 % 0.00 in
05:04 61.8 °F 59.5 °F 29.94 in Calm     92 % 0.00 in
05:09 61.7 °F 59.4 °F 29.94 in Calm     92 % 0.00 in
05:14 61.6 °F 59.3 °F 29.94 in Calm     92 % 0.00 in
05:19 61.6 °F 59.3 °F 29.95 in Calm     92 % 0.00 in
05:24 61.5 °F 59.2 °F 29.94 in Calm     92 % 0.00 in
05:29 61.4 °F 59.1 °F 29.95 in Calm     92 % 0.00 in
05:34 61.3 °F 59.0 °F 29.95 in Calm     92 % 0.00 in
05:39 61.3 °F 59.0 °F 29.95 in Calm     92 % 0.00 in
05:44 61.2 °F 59.2 °F 29.96 in Calm     93 % 0.00 in
05:49 61.2 °F 59.2 °F 29.96 in Calm     93 % 0.00 in
05:54 61.1 °F 59.1 °F 29.96 in Calm     93 % 0.00 in
05:59 61.2 °F 59.2 °F 29.96 in Calm     93 % 0.00 in
06:01 61.2 °F 59.2 °F 29.96 in Calm     93 % 0.00 in
06:07 61.2 °F 59.2 °F 29.96 in Calm     93 % 0.00 in
06:12 61.2 °F 59.2 °F 29.96 in Calm     93 % 0.00 in
06:17 61.3 °F 59.6 °F 29.96 in Calm     94 % 0.00 in
06:22 61.3 °F 59.6 °F 29.96 in Calm     94 % 0.00 in
06:27 61.4 °F 59.7 °F 29.96 in Calm   1.0 mph 94 % 0.00 in
06:32 61.7 °F 60.3 °F 29.97 in Calm     95 % 0.00 in
06:37 62.0 °F 60.6 °F 29.97 in Calm     95 % 0.00 in
06:42 62.4 °F 60.9 °F 29.97 in Calm     95 % 0.00 in
06:47 63.0 °F 61.8 °F 29.97 in Calm     96 % 0.00 in
06:52 63.8 °F 62.6 °F 29.97 in Calm     96 % 0.00 in
06:57 64.3 °F 63.1 °F 29.97 in Calm     96 % 0.00 in
07:02 64.7 °F 63.5 °F 29.97 in Calm     96 % 0.00 in
07:07 64.9 °F 63.7 °F 29.97 in Calm     96 % 0.00 in
07:12 65.1 °F 63.9 °F 29.97 in Calm     96 % 0.00 in
07:15 65.4 °F 63.9 °F 29.98 in Calm     95 % 0.00 in
07:20 65.9 °F 64.4 °F 29.98 in Calm     95 % 0.00 in
07:25 66.3 °F 64.5 °F 29.98 in Calm     94 % 0.00 in
07:30 66.9 °F 63.9 °F 29.98 in Calm     90 % 0.00 in
07:35 67.4 °F 63.7 °F 29.98 in Calm     88 % 0.00 in
07:40 67.9 °F 63.9 °F 29.99 in Calm     87 % 0.00 in
07:45 68.2 °F 63.5 °F 29.98 in Calm   1.0 mph 85 % 0.00 in
07:50 68.4 °F 62.3 °F 29.99 in Calm     81 % 0.00 in
07:55 68.7 °F 63.0 °F 29.98 in Calm     82 % 0.00 in
08:00 68.8 °F 62.0 °F 29.98 in Calm     79 % 0.00 in
08:06 68.9 °F 61.4 °F 29.99 in West 0.1 mph 1.2 mph 77 % 0.00 in
08:11 69.1 °F 61.6 °F 29.99 in Calm     77 % 0.00 in
08:16 69.2 °F 62.4 °F 29.99 in Calm   3.0 mph 79 % 0.00 in
08:21 69.2 °F 61.3 °F 29.99 in Calm   1.2 mph 76 % 0.00 in
08:26 69.3 °F 61.4 °F 29.99 in NNW 1.0 mph 3.0 mph 76 % 0.00 in
08:31 69.4 °F 60.4 °F 30.00 in Calm   2.0 mph 73 % 0.00 in
08:36 69.6 °F 61.3 °F 29.99 in Calm   2.0 mph 75 % 0.00 in
08:41 69.8 °F 60.8 °F 29.99 in Calm   2.0 mph 73 % 0.00 in
08:46 70.1 °F 61.8 °F 30.00 in Calm   1.0 mph 75 % 0.00 in
08:51 70.2 °F 61.1 °F 30.00 in North 1.0 mph 2.0 mph 73 % 0.00 in
08:56 70.4 °F 60.9 °F 30.00 in North 2.0 mph 4.0 mph 72 % 0.00 in
09:01 70.6 °F 61.5 °F 30.00 in North 1.6 mph 2.0 mph 73 % 0.00 in
09:06 70.7 °F 60.8 °F 29.99 in NNE 0.2 mph 2.3 mph 71 % 0.00 in
09:11 70.7 °F 60.0 °F 29.99 in NNE 0.8 mph 2.3 mph 69 % 0.00 in
09:16 70.7 °F 60.4 °F 29.99 in NNE 1.3 mph 3.5 mph 70 % 0.00 in
09:21 70.8 °F 60.5 °F 29.98 in NNE 0.9 mph 2.3 mph 70 % 0.00 in
09:26 70.8 °F 60.9 °F 29.98 in Calm   1.2 mph 71 % 0.00 in
09:31 70.9 °F 61.4 °F 29.98 in NNE 0.2 mph   72 % 0.00 in
09:36 71.0 °F 60.7 °F 29.98 in NNE 0.8 mph 2.3 mph 70 % 0.00 in
09:41 71.2 °F 60.9 °F 29.97 in NNE 0.3 mph 1.2 mph 70 % 0.00 in
09:46 71.6 °F 61.3 °F 29.97 in North 2.8 mph 4.6 mph 70 % 0.00 in
09:51 72.2 °F 61.9 °F 29.98 in North 2.4 mph 5.8 mph 70 % 0.00 in
09:56 72.9 °F 61.3 °F 29.97 in NE 0.6 mph 2.3 mph 67 % 0.00 in
10:01 73.8 °F 62.2 °F 29.97 in NNE 1.4 mph 3.5 mph 67 % 0.00 in
10:06 74.7 °F 63.9 °F 29.97 in Calm   1.2 mph 69 % 0.00 in
10:11 75.8 °F 63.6 °F 29.97 in Calm   1.2 mph 66 % 0.00 in
10:16 76.8 °F 64.1 °F 29.97 in Calm   1.2 mph 65 % 0.00 in
10:21 77.5 °F 64.4 °F 29.96 in WSW 0.6 mph 2.3 mph 64 % 0.00 in
10:26 78.3 °F 64.2 °F 29.96 in North 0.8 mph 2.3 mph 62 % 0.00 in
10:31 78.5 °F 63.5 °F 29.95 in Calm     60 % 0.00 in
10:36 78.8 °F 65.1 °F 29.95 in North 0.6 mph 2.0 mph 63 % 0.00 in
10:41 79.6 °F 66.8 °F 29.94 in Calm     65 % 0.00 in
10:47 80.3 °F 63.7 °F 29.95 in North 1.2 mph 2.3 mph 57 % 0.00 in
10:52 80.8 °F 64.1 °F 29.95 in North 0.3 mph 2.3 mph 57 % 0.00 in
10:56 81.4 °F 64.2 °F 29.96 in NNE 1.1 mph 3.5 mph 56 % 0.00 in
11:01 81.7 °F 64.5 °F 29.96 in ENE 0.6 mph 3.5 mph 56 % 0.00 in
11:07 82.1 °F 65.4 °F 29.95 in North 0.4 mph 1.2 mph 57 % 0.00 in
11:12 82.6 °F 64.8 °F 29.95 in NE 1.0 mph 2.3 mph 55 % 0.00 in
11:17 83.2 °F 65.4 °F 29.95 in North 0.7 mph 2.3 mph 55 % 0.00 in
11:22 83.7 °F 65.8 °F 29.95 in North 1.2 mph 3.5 mph 55 % 0.00 in
11:27 84.1 °F 63.5 °F 29.95 in North 1.9 mph 3.5 mph 50 % 0.00 in
11:32 84.6 °F 65.6 °F 29.95 in NNE 2.6 mph 3.5 mph 53 % 0.00 in
11:37 84.8 °F 65.2 °F 29.95 in NE 1.2 mph 4.6 mph 52 % 0.00 in
11:42 84.8 °F 64.7 °F 29.95 in ENE 0.8 mph 2.3 mph 51 % 0.00 in
11:47 84.8 °F 65.2 °F 29.95 in Calm   1.2 mph 52 % 0.00 in
11:52 85.0 °F 66.0 °F 29.95 in NE 0.3 mph 2.3 mph 53 % 0.00 in
11:57 85.3 °F 62.8 °F 29.95 in WNW 1.1 mph 3.5 mph 47 % 0.00 in
12:02 85.5 °F 64.7 °F 29.95 in North 1.8 mph 5.0 mph 50 % 0.00 in
12:07 85.6 °F 63.7 °F 29.95 in NNE 0.3 mph 3.0 mph 48 % 0.00 in
12:12 85.5 °F 65.3 °F 29.95 in NW 0.9 mph 3.0 mph 51 % 0.00 in
12:17 85.6 °F 63.1 °F 29.95 in North 3.1 mph 4.6 mph 47 % 0.00 in
12:22 85.6 °F 62.4 °F 29.95 in North 0.5 mph 2.3 mph 46 % 0.00 in
12:27 85.5 °F 63.6 °F 29.95 in NNE 1.9 mph 3.5 mph 48 % 0.00 in
12:32 85.1 °F 62.6 °F 29.95 in North 2.1 mph 3.5 mph 47 % 0.00 in
12:37 84.8 °F 63.5 °F 29.95 in North 2.1 mph 3.5 mph 49 % 0.00 in
12:42 84.5 °F 64.9 °F 29.94 in North 0.1 mph 1.2 mph 52 % 0.00 in
12:47 84.1 °F 65.7 °F 29.94 in North 1.0 mph 3.0 mph 54 % 0.00 in
12:52 83.7 °F 65.3 °F 29.94 in NNE 3.5 mph 3.5 mph 54 % 0.00 in
12:57 83.5 °F 64.6 °F 29.93 in ENE 0.6 mph 2.0 mph 53 % 0.00 in
13:02 83.1 °F 64.2 °F 29.93 in ENE 0.3 mph 2.3 mph 53 % 0.00 in
13:07 82.7 °F 65.9 °F 29.93 in NNE 0.3 mph 2.3 mph 57 % 0.00 in
13:12 82.1 °F 64.8 °F 29.93 in NNE 0.6 mph 1.2 mph 56 % 0.00 in
13:17 81.8 °F 63.5 °F 29.93 in Calm   1.0 mph 54 % 0.00 in
13:22 82.1 °F 66.4 °F 29.93 in Calm     59 % 0.00 in
13:27 82.1 °F 64.3 °F 29.93 in Calm     55 % 0.00 in
13:30 82.2 °F 66.0 °F 29.93 in WSW 2.4 mph 3.5 mph 58 % 0.00 in
13:35 82.6 °F 65.3 °F 29.93 in WSW 1.2 mph 3.5 mph 56 % 0.00 in
13:40 83.1 °F 65.3 °F 29.94 in SW 2.5 mph 5.8 mph 55 % 0.00 in
13:50 84.0 °F 63.4 °F 29.93 in SW 2.1 mph 4.6 mph 50 % 0.00 in
13:55 84.3 °F 64.8 °F 29.92 in SSE 1.6 mph 3.5 mph 52 % 0.00 in
14:00 84.8 °F 65.2 °F 29.92 in SW 1.3 mph 3.5 mph 52 % 0.00 in
14:05 85.2 °F 65.0 °F 29.92 in SW 2.0 mph 4.6 mph 51 % 0.00 in
14:10 85.5 °F 63.6 °F 29.92 in SE 1.7 mph 4.6 mph 48 % 0.00 in
14:15 85.5 °F 63.6 °F 29.92 in WSW 3.6 mph 6.9 mph 48 % 0.00 in
14:20 85.8 °F 66.1 °F 29.92 in SSE 1.5 mph 3.5 mph 52 % 0.00 in
14:25 86.0 °F 63.4 °F 29.91 in SSW 2.8 mph 4.0 mph 47 % 0.00 in
14:30 86.0 °F 62.8 °F 29.91 in SSE 1.5 mph 3.5 mph 46 % 0.00 in
14:35 85.5 °F 64.2 °F 29.91 in South 1.1 mph 4.0 mph 49 % 0.00 in
14:40 85.6 °F 64.2 °F 29.91 in SW 3.0 mph 5.8 mph 49 % 0.00 in
14:45 85.6 °F 63.7 °F 29.91 in WSW 0.9 mph 3.5 mph 48 % 0.00 in
14:50 85.6 °F 63.1 °F 29.91 in West 0.5 mph 3.5 mph 47 % 0.00 in
14:55 85.2 °F 62.7 °F 29.91 in SSW 1.8 mph 3.5 mph 47 % 0.00 in
15:00 85.0 °F 62.5 °F 29.91 in WSW 1.0 mph 5.0 mph 47 % 0.00 in
15:05 85.1 °F 63.8 °F 29.91 in WSW 3.2 mph 6.9 mph 49 % 0.00 in
15:10 85.3 °F 63.4 °F 29.91 in West 0.8 mph 6.9 mph 48 % 0.00 in
15:15 85.5 °F 63.6 °F 29.91 in Calm   3.5 mph 48 % 0.00 in
15:20 85.6 °F 62.4 °F 29.91 in SE 2.0 mph 4.6 mph 46 % 0.00 in
15:25 85.6 °F 63.7 °F 29.91 in WSW 0.6 mph 3.5 mph 48 % 0.00 in
15:30 85.9 °F 64.5 °F 29.90 in SE 0.9 mph 3.5 mph 49 % 0.00 in
15:35 85.9 °F 62.7 °F 29.91 in SSW 5.0 mph 6.9 mph 46 % 0.00 in
15:40 86.0 °F 62.2 °F 29.90 in South 2.4 mph 3.5 mph 45 % 0.00 in
15:45 85.4 °F 61.6 °F 29.90 in SE 0.9 mph 3.5 mph 45 % 0.00 in
15:50 85.1 °F 63.8 °F 29.89 in SSE 0.6 mph 2.3 mph 49 % 0.00 in
15:56 84.9 °F 63.0 °F 29.89 in SSE 1.0 mph 4.0 mph 48 % 0.00 in
16:01 84.8 °F 62.3 °F 29.89 in SE 3.9 mph 5.0 mph 47 % 0.00 in
16:06 84.1 °F 61.7 °F 29.89 in SSE 7.0 mph 12.0 mph 47 % 0.00 in
16:11 83.9 °F 63.3 °F 29.89 in South 2.0 mph 6.0 mph 50 % 0.00 in
16:16 83.9 °F 63.8 °F 29.89 in SW 0.9 mph 1.2 mph 51 % 0.00 in
16:21 83.9 °F 62.1 °F 29.89 in South 2.1 mph 3.5 mph 48 % 0.00 in
16:26 83.9 °F 62.7 °F 29.88 in SE 1.4 mph 3.5 mph 49 % 0.00 in
16:31 83.8 °F 63.2 °F 29.89 in SW 2.0 mph 3.5 mph 50 % 0.00 in
16:36 83.9 °F 64.4 °F 29.89 in WSW 0.8 mph 3.5 mph 52 % 0.00 in
16:41 83.9 °F 63.3 °F 29.89 in SW 2.8 mph 4.6 mph 50 % 0.00 in
16:46 83.9 °F 63.8 °F 29.89 in WSW 0.4 mph 3.5 mph 51 % 0.00 in
16:51 83.8 °F 63.2 °F 29.89 in SSE 0.6 mph 2.3 mph 50 % 0.00 in
16:56 83.7 °F 62.5 °F 29.89 in SE 1.9 mph 3.5 mph 49 % 0.00 in
17:01 83.3 °F 62.7 °F 29.88 in SSE 0.8 mph 4.0 mph 50 % 0.00 in
17:06 83.0 °F 63.6 °F 29.89 in SW 1.2 mph 4.6 mph 52 % 0.00 in
17:11 82.6 °F 63.7 °F 29.88 in SSE 1.8 mph 3.5 mph 53 % 0.00 in
17:16 82.3 °F 64.0 °F 29.88 in SE 0.7 mph 3.5 mph 54 % 0.00 in
17:21 81.9 °F 64.1 °F 29.87 in SSE 4.3 mph 8.1 mph 55 % 0.00 in
17:26 81.6 °F 64.9 °F 29.87 in SE 1.8 mph 4.6 mph 57 % 0.00 in
17:31 81.5 °F 65.8 °F 29.86 in SSE 1.6 mph 2.3 mph 59 % 0.00 in
17:36 81.3 °F 64.6 °F 29.87 in South 1.6 mph 3.5 mph 57 % 0.00 in
17:42 81.3 °F 64.6 °F 29.86 in SE 4.2 mph 6.9 mph 57 % 0.00 in
17:47 81.3 °F 64.6 °F 29.86 in SW 1.5 mph 5.8 mph 57 % 0.00 in
17:52 81.2 °F 64.0 °F 29.85 in South 2.1 mph 5.8 mph 56 % 0.00 in
17:57 81.2 °F 63.5 °F 29.85 in SE 2.2 mph 4.6 mph 55 % 0.00 in
18:02 81.2 °F 64.0 °F 29.86 in South 1.2 mph 5.8 mph 56 % 0.00 in
18:07 81.1 °F 63.4 °F 29.86 in South 2.2 mph 4.0 mph 55 % 0.00 in
18:13 81.1 °F 62.9 °F 29.86 in WSW 1.2 mph 5.0 mph 54 % 0.00 in
18:18 81.0 °F 61.7 °F 29.87 in SE 2.6 mph 8.1 mph 52 % 0.00 in
18:23 80.9 °F 61.6 °F 29.86 in SSW 2.6 mph 6.9 mph 52 % 0.00 in
18:28 80.9 °F 61.6 °F 29.87 in South 0.4 mph 2.3 mph 52 % 0.00 in
18:33 80.8 °F 62.1 °F 29.86 in South 2.6 mph 8.1 mph 53 % 0.00 in
18:38 80.8 °F 61.0 °F 29.86 in South 2.7 mph 6.9 mph 51 % 0.00 in
18:43 80.6 °F 61.3 °F 29.86 in SE 1.3 mph 3.5 mph 52 % 0.00 in
18:48 80.5 °F 61.8 °F 29.86 in SSW 2.6 mph 3.5 mph 53 % 0.00 in
18:53 80.3 °F 61.1 °F 29.86 in SSW 0.5 mph 3.5 mph 52 % 0.00 in
18:58 80.1 °F 61.4 °F 29.86 in WSW 2.3 mph 4.6 mph 53 % 0.00 in
19:03 80.0 °F 61.3 °F 29.86 in SSW 1.4 mph 3.5 mph 53 % 0.00 in
19:08 79.8 °F 61.1 °F 29.87 in South 0.9 mph 3.5 mph 53 % 0.00 in
19:13 79.5 °F 60.9 °F 29.86 in ESE 1.6 mph 3.5 mph 53 % 0.00 in
19:18 79.3 °F 60.7 °F 29.87 in SSW 1.6 mph 5.8 mph 53 % 0.00 in
19:23 79.1 °F 61.0 °F 29.87 in SSW 2.4 mph 4.6 mph 54 % 0.00 in
19:28 78.9 °F 61.4 °F 29.87 in SSW 2.0 mph 5.8 mph 55 % 0.00 in
19:33 78.8 °F 61.3 °F 29.87 in SE 2.3 mph 5.0 mph 55 % 0.00 in
19:39 78.6 °F 61.6 °F 29.87 in SSE 1.0 mph 3.5 mph 56 % 0.00 in
19:44 78.4 °F 62.4 °F 29.87 in SSW 1.7 mph 3.5 mph 58 % 0.00 in
19:49 78.0 °F 62.5 °F 29.87 in South 0.9 mph 3.5 mph 59 % 0.00 in
19:54 77.7 °F 62.7 °F 29.86 in SSE 2.7 mph 9.2 mph 60 % 0.00 in
19:59 77.4 °F 62.9 °F 29.86 in South 2.6 mph 5.8 mph 61 % 0.00 in
20:04 77.1 °F 63.1 °F 29.86 in SSE 2.5 mph 4.6 mph 62 % 0.00 in
20:09 76.9 °F 63.3 °F 29.86 in SE 1.7 mph 3.5 mph 63 % 0.00 in
20:14 76.6 °F 63.5 °F 29.86 in South 1.9 mph 4.0 mph 64 % 0.00 in
20:19 76.3 °F 64.1 °F 29.86 in SSW 1.3 mph 3.5 mph 66 % 0.00 in
20:24 76.1 °F 64.3 °F 29.86 in SE 0.9 mph 3.5 mph 67 % 0.00 in
20:29 75.9 °F 64.2 °F 29.86 in SE 1.9 mph 6.0 mph 67 % 0.00 in
20:34 75.7 °F 64.4 °F 29.86 in SSE 1.3 mph 4.6 mph 68 % 0.00 in
20:39 75.6 °F 64.7 °F 29.86 in SE 3.5 mph 5.8 mph 69 % 0.00 in
20:44 75.4 °F 64.9 °F 29.86 in SSE 1.0 mph 3.5 mph 70 % 0.00 in
20:49 75.3 °F 65.2 °F 29.86 in South 0.6 mph 3.5 mph 71 % 0.00 in
20:54 75.1 °F 65.5 °F 29.86 in South 0.4 mph 2.3 mph 72 % 0.00 in
20:59 75.0 °F 65.8 °F 29.86 in SSE 1.3 mph 3.0 mph 73 % 0.00 in
21:04 74.9 °F 66.1 °F 29.86 in South 0.6 mph 2.3 mph 74 % 0.00 in
21:09 74.8 °F 66.3 °F 29.87 in SSE 0.8 mph 4.0 mph 75 % 0.00 in
21:14 74.6 °F 66.9 °F 29.86 in South 1.4 mph 10.4 mph 77 % 0.00 in
21:19 74.5 °F 67.2 °F 29.87 in SSW 1.4 mph 3.5 mph 78 % 0.00 in
21:24 74.3 °F 67.4 °F 29.86 in SSE 0.3 mph 5.8 mph 79 % 0.00 in
21:29 74.3 °F 67.7 °F 29.87 in SE 0.8 mph 5.8 mph 80 % 0.00 in
21:34 74.1 °F 67.5 °F 29.87 in South 1.5 mph 4.0 mph 80 % 0.00 in
21:39 74.0 °F 68.2 °F 29.86 in South 1.8 mph 3.5 mph 82 % 0.00 in
21:44 73.9 °F 68.4 °F 29.86 in SE 0.9 mph 8.1 mph 83 % 0.00 in
21:50 73.8 °F 68.3 °F 29.86 in SSE 0.8 mph 2.0 mph 83 % 0.00 in
21:55 73.7 °F 68.6 °F 29.86 in SE 1.7 mph 3.5 mph 84 % 0.00 in
22:00 73.7 °F 68.6 °F 29.86 in SE 0.1 mph 2.3 mph 84 % 0.00 in
22:05 73.6 °F 68.5 °F 29.86 in South 0.2 mph 1.2 mph 84 % 0.00 in
22:10 73.6 °F 68.8 °F 29.86 in SSE 0.4 mph 3.5 mph 85 % 0.00 in
22:15 73.5 °F 68.7 °F 29.86 in WSW 1.4 mph 3.5 mph 85 % 0.00 in
22:20 73.5 °F 68.7 °F 29.86 in SSE 0.6 mph 2.3 mph 85 % 0.00 in
22:25 73.5 °F 68.7 °F 29.86 in SSE 1.2 mph 3.5 mph 85 % 0.00 in
22:30 73.5 °F 69.1 °F 29.86 in SSE 1.4 mph 4.6 mph 86 % 0.00 in
22:35 73.5 °F 69.1 °F 29.86 in West 0.5 mph 3.5 mph 86 % 0.00 in
22:40 73.5 °F 69.1 °F 29.86 in WSW 1.7 mph 5.8 mph 86 % 0.00 in
22:45 73.5 °F 69.1 °F 29.86 in South 0.9 mph 2.3 mph 86 % 0.00 in
22:50 73.5 °F 69.1 °F 29.86 in SSW 0.9 mph 2.3 mph 86 % 0.00 in
22:55 73.6 °F 69.2 °F 29.86 in South 0.2 mph 1.2 mph 86 % 0.00 in
23:00 73.6 °F 69.2 °F 29.86 in South 0.2 mph 1.2 mph 86 % 0.00 in
23:05 73.6 °F 69.2 °F 29.86 in SE 0.8 mph 3.5 mph 86 % 0.00 in
23:08 73.7 °F 69.2 °F 29.85 in South 1.8 mph 2.3 mph 86 % 0.00 in
23:13 73.7 °F 69.6 °F 29.86 in Calm   2.3 mph 87 % 0.00 in
23:18 73.7 °F 69.6 °F 29.86 in SSW 2.3 mph 3.5 mph 87 % 0.00 in
23:23 73.7 °F 69.6 °F 29.86 in South 2.9 mph 4.0 mph 87 % 0.00 in
23:28 73.7 °F 69.6 °F 29.86 in South 1.1 mph 3.0 mph 87 % 0.00 in
23:33 73.8 °F 69.7 °F 29.85 in SW 1.6 mph 3.5 mph 87 % 0.00 in
23:38 73.9 °F 69.8 °F 29.86 in SW 1.3 mph 3.5 mph 87 % 0.00 in
23:43 73.9 °F 69.8 °F 29.85 in SW 0.9 mph 4.6 mph 87 % 0.00 in
23:45 74.0 °F 69.9 °F 29.85 in SW 1.1 mph 2.3 mph 87 % 0.00 in
23:50 74.0 °F 69.9 °F 29.86 in SSW 1.7 mph 4.6 mph 87 % 0.00 in
23:55 74.1 °F 70.0 °F 29.86 in SSW 2.7 mph 4.0 mph 87 % 0.00 in
Crab Meadow Weather
Compliments of Weather Underground - 3 mb

Script developed by  Jim McMurry - jmcmurry@mwt.net Adapted for the template by  Wim van der Kuil - Leuven-Template.eu

Extremes: Alaska and Hawaii have the same heat record. In Pahala, Hawaii the temperature on April 27, 1931 was 100 degrees F. Alaska's state heat record is also 100 degrees F. on June 27, 1915 at Fort Yukon.